Location: Esp�s Alto
(42.4476°N, 0.5876°E)
Time: 01:59:46
(UTC+00:00)

NOSS 3-4 (A) - Pass Details

Date: 22 October 2019
Orbit: 907 x 1306 km, 63.4° (Epoch: 10 November)

Event Time Altitude Azimuth Distance (km) Brightness Sun altitude
Exits shadow 03:42:56 79° 350° (N) 953 3.3 -29.2°
Drops below altitude 10° 03:49:00 10° 35° (NE) 2,737 6.4 -28.1°
Sets 03:51:41 0° 36° (NE) 3,740 7.2 -27.6°
